Volver al catálogo

IRIDIUM 33 DEB

ActivoPO
NORAD 35480·DEBRIS·🇺🇸 United States

Lanzado Sep 14, 1997 desde Baikonur Cosmodrome

Loading…

Próximos Pases (próximas 24 horas)

TLE

ActualizadoSource: Space-Track

Época: Sep 13, 2026, 07:23 UTC

1 35480U 97051QA  26256.30782212  .00001274  00000-0  31763-3 0  9995
2 35480  86.3495 265.7417 0010907 266.8950  93.1007 14.50903447910111

Sigue IRIDIUM 33 DEB en tiempo real con AllMySat

Download on the App Store